Location: Bill Sadowski Park
(25.6087°N, 80.3181°W)
Time: 21:38:23
(UTC-05:00)

ISS - Visible Passes

Search period start: 13 December 2017 00:00
Search period end: 23 December 2017 00:00
Orbit: 403 x 407 km, 51.6° (Epoch: 14 December)

Date Brightness Start Highest point End Pass type
(mag) Time Alt. Az. Time Alt. Az. Time Alt. Az.
14 Dec -1.1 19:03:13 10° NNW 19:03:21 11° NNW 19:03:21 11° NNW visible
15 Dec -1.9 18:11:57 10° N 18:13:42 14° NE 18:14:28 13° NE visible
16 Dec -3.9 18:54:47 10° NW 18:58:03 88° SW 18:58:56 45° SE visible
17 Dec -3.2 18:02:45 10° NNW 18:05:48 36° NE 18:08:50 10° ESE visible
17 Dec -0.3 19:41:22 10° WSW 19:41:58 10° SW 19:42:33 10° SW visible
18 Dec -1.3 18:47:09 10° WNW 18:49:51 24° SW 18:52:33 10° S visible
